7 * 24
多渠道服务支持
BEIDOU-3S IGSO-1S 是中国北斗三号卫星导航系统中的倾斜地球同步轨道(IGSO)卫星之一,主要用于增强系统在全球范围内的定位、导航和授时能力。该卫星采用先进的导航技术,具备高精度、高稳定性和抗干扰能力,为用户提供全天候、全天时的导航服务。其发射进一步完善了北斗全球卫星导航系统的星座布局,提升了系统在中低纬度地区的覆盖与服务性能。
中国
(CN)
| 数据来源 | 国际轨道数据 |
| 星历时间: | 2026-09-12T22:49:44+0800 14小时前 查看轨道信息 |
| 半长轴: | 42159.739km |
| 偏心率: | 0.0038824 |
| 轨道倾角: | 49.028° |
| 近地点辐角 | 200.459° |
| 升交点赤经 | 294.401° |
| 平近点角 | 174.992° |
| 近地点: | 35617.921km |
| 远地点: | 35945.283km |
| 周期: | 1435.842分钟 |
| 每日圈数: | 1.002896 |